| time (UTC) | temp C | wind direction | speed KPH | gust KPH | rain 1hr cm | rain 24hr cm | rain mn cm | humidity % | barometer mb |
| 20260506021541 | 14 | 217 | 11.3 | 17.7 | 0.00 | 0.03 | 0.03 | 78 | 1012.1 |
| 20260506020003 | 14 | 259 | 8.0 | 14.5 | 0.00 | 0.03 | 0.03 | 77 | 1012.1 |
| 20260506014556 | 15 | 241 | 11.3 | 17.7 | 0.00 | 0.03 | 0.03 | 77 | 1012.1 |
| 20260506013023 | 15 | 252 | 9.7 | 17.7 | 0.00 | 0.03 | 0.03 | 76 | 1012.1 |
| 20260506011611 | 15 | 236 | 4.8 | 17.7 | 0.00 | 0.03 | 0.03 | 77 | 1012.0 |
| 20260506010031 | 15 | 250 | 9.7 | 16.1 | 0.00 | 0.03 | 0.03 | 77 | 1012.0 |
| 20260506004625 | 15 | 254 | 4.8 | 16.1 | 0.00 | 0.03 | 0.03 | 78 | 1012.0 |
| 20260506003045 | 14 | 284 | 11.3 | 24.1 | 0.00 | 0.03 | 0.03 | 78 | 1012.0 |
| 20260506001503 | 14 | 283 | 4.8 | 19.3 | 0.00 | 0.03 | 0.03 | 78 | 1011.8 |
| 20260506000101 | 14 | 276 | 12.9 | 25.7 | 0.00 | 0.03 | 0.03 | 77 | 1011.7 |
| 20260505234517 | 15 | 292 | 14.5 | 24.1 | 0.00 | 0.03 | 0.03 | 77 | 1011.5 |
| 20260505233114 | 15 | 274 | 8.0 | 16.1 | 0.00 | 0.03 | 0.03 | 77 | 1011.7 |
| 20260505231537 | 15 | 268 | 8.0 | 22.5 | 0.00 | 0.03 | 0.03 | 76 | 1011.6 |
| 20260505230005 | 16 | 271 | 3.2 | 16.1 | 0.00 | 0.03 | 0.03 | 74 | 1011.6 |
| 20260505224556 | 16 | 320 | 8.0 | 14.5 | 0.00 | 0.03 | 0.03 | 71 | 1011.4 |
| 20260505223018 | 16 | 360 | 0.0 | 6.4 | 0.00 | 0.03 | 0.03 | 70 | 1011.5 |
| 20260505221609 | 16 | 329 | 0.0 | 6.4 | 0.00 | 0.03 | 0.03 | 69 | 1011.7 |
| 20260505220030 | 16 | 19 | 1.6 | 11.3 | 0.00 | 0.03 | 0.03 | 71 | 1011.6 |
| 20260505214625 | 16 | 228 | 3.2 | 11.3 | 0.00 | 0.03 | 0.03 | 69 | 1011.8 |
| 20260505213056 | 16 | 308 | 6.4 | 14.5 | 0.00 | 0.03 | 0.03 | 70 | 1012.0 |
| 20260505211507 | 16 | 281 | 6.4 | 16.1 | 0.00 | 0.03 | 0.03 | 72 | 1012.0 |
| 20260505210106 | 16 | 329 | 4.8 | 14.5 | 0.00 | 0.03 | 0.03 | 74 | 1012.0 |
| 20260505204532 | 16 | 309 | 1.6 | 9.7 | 0.00 | 0.03 | 0.03 | 73 | 1011.9 |
| 20260505203130 | 16 | 360 | 6.4 | 16.1 | 0.00 | 0.03 | 0.03 | 72 | 1011.9 |
| 20260505201542 | 16 | 342 | 0.0 | 6.4 | 0.00 | 0.03 | 0.03 | 74 | 1012.0 |
| 20260505200003 | 16 | 269 | 3.2 | 14.5 | 0.00 | 0.03 | 0.03 | 74 | 1012.1 |
| 20260505194607 | 15 | 271 | 11.3 | 17.7 | 0.00 | 0.03 | 0.03 | 75 | 1012.3 |
| 20260505193010 | 15 | 131 | 1.6 | 6.4 | 0.00 | 0.03 | 0.03 | 80 | 1012.3 |
| 20260505191604 | 14 | 202 | 0.0 | 8.0 | 0.00 | 0.03 | 0.03 | 80 | 1012.4 |
| 20260505190020 | 14 | 203 | 6.4 | 9.7 | 0.00 | 0.03 | 0.03 | 82 | 1012.3 |
| 20260505184611 | 13 | 344 | 0.0 | 4.8 | 0.00 | 0.03 | 0.03 | 85 | 1012.3 |
| 20260505183029 | 13 | 286 | 1.6 | 12.9 | 0.00 | 0.03 | 0.03 | 85 | 1012.4 |
| 20260505181626 | 13 | 10 | 1.6 | 6.4 | 0.00 | 0.03 | 0.03 | 85 | 1012.3 |
| 20260505180040 | 13 | 327 | 0.0 | 3.2 | 0.00 | 0.03 | 0.03 | 85 | 1012.2 |
| 20260505174634 | 13 | 224 | 1.6 | 3.2 | 0.00 | 0.03 | 0.03 | 86 | 1012.1 |
| 20260505173052 | 13 | 15 | 0.0 | 4.8 | 0.00 | 0.03 | 0.03 | 87 | 1012.0 |
| 20260505171516 | 12 | 38 | 0.0 | 4.8 | 0.00 | 0.03 | 0.03 | 87 | 1011.9 |
| 20260505170112 | 12 | 55 | 3.2 | 6.4 | 0.00 | 0.03 | 0.03 | 88 | 1011.8 |
| 20260505164546 | 12 | 28 | 0.0 | 4.8 | 0.00 | 0.03 | 0.03 | 90 | 1011.8 |
| 20260505163119 | 12 | 98 | 0.0 | 4.8 | 0.00 | 0.03 | 0.03 | 90 | 1011.8 |
| 20260505161543 | 12 | 294 | 0.0 | 1.6 | 0.00 | 0.03 | 0.03 | 91 | 1011.7 |
| 20260505160130 | 11 | 294 | 0.0 | 3.2 | 0.00 | 0.03 | 0.03 | 91 | 1011.8 |
| 20260505153011 | 11 | 296 | 0.0 | 3.2 | 0.00 | 0.03 | 0.03 | 92 | 1011.6 |
| 20260505151606 | 11 | 296 | 0.0 | 4.8 | 0.00 | 0.03 | 0.03 | 92 | 1011.4 |
| 20260505130113 | 10 | 219 | 0.0 | 3.2 | 0.00 | 0.03 | 0.03 | 91 | 1010.8 |
| 20260505124537 | 10 | 170 | 3.2 | 8.0 | 0.03 | 0.03 | 0.03 | 91 | 1011.1 |
| 20260505123127 | 10 | 262 | 3.2 | 9.7 | 0.03 | 0.03 | 0.03 | 91 | 1011.2 |
| 20260505121552 | 10 | 144 | 4.8 | 8.0 | 0.03 | 0.03 | 0.03 | 91 | 1010.8 |
| 20260505120010 | 10 | 236 | 1.6 | 3.2 | 0.03 | 0.03 | 0.03 | 91 | 1011.0 |
| 20260505114605 | 10 | 236 | 0.0 | 3.2 | 0.00 | 0.00 | 0.00 | 91 | 1011.1 |
| 20260505113034 | 10 | 236 | 1.6 | 3.2 | 0.00 | 0.00 | 0.00 | 91 | 1011.2 |
| 20260505111631 | 10 | 128 | 0.0 | 3.2 | 0.00 | 0.00 | 0.00 | 91 | 1011.2 |
| 20260505101515 | 10 | 160 | 4.8 | 9.7 | 0.00 | 0.00 | 0.00 | 90 | 1011.1 |
| 20260505100105 | 10 | 163 | 1.6 | 4.8 | 0.00 | 0.00 | 0.00 | 90 | 1011.2 |
| 20260505094522 | 10 | 204 | 0.0 | 3.2 | 0.00 | 0.00 | 0.00 | 90 | 1011.2 |
| 20260505093116 | 10 | 204 | 0.0 | 1.6 | 0.00 | 0.00 | 0.00 | 90 | 1011.3 |
| 20260505091551 | 10 | 197 | 0.0 | 3.2 | 0.00 | 0.00 | 0.00 | 90 | 1011.5 |
| 20260505090133 | 10 | 197 | 3.2 | 4.8 | 0.00 | 0.00 | 0.00 | 89 | 1011.6 |
| 20260505084555 | 10 | 181 | 3.2 | 6.4 | 0.00 | 0.00 | 0.00 | 89 | 1011.7 |
| 20260505083011 | 10 | 148 | 1.6 | 4.8 | 0.00 | 0.00 | 0.00 | 89 | 1011.9 |
| 20260505081605 | 10 | 355 | 0.0 | 3.2 | 0.00 | 0.00 | 0.00 | 89 | 1011.9 |
| 20260505080035 | 10 | 351 | 0.0 | 1.6 | 0.00 | 0.00 | 0.00 | 89 | 1012.1 |
| 20260505074620 | 10 | 355 | 0.0 | 4.8 | 0.00 | 0.00 | 0.00 | 88 | 1012.3 |
| 20260505073038 | 10 | 324 | 0.0 | 3.2 | 0.00 | 0.00 | 0.00 | 88 | 1012.2 |
| 20260505071633 | 10 | 242 | 0.0 | 0.0 | 0.00 | 0.00 | 0.00 | 88 | 1012.0 |
| 20260505070053 | 10 | 241 | 1.6 | 3.2 | 0.00 | 0.00 | 0.00 | 88 | 1011.8 |
| 20260505064616 | 10 | 242 | 0.0 | 3.2 | 0.00 | 0.00 | 0.00 | 87 | 1011.7 |
| 20260505063039 | 10 | 194 | 1.6 | 3.2 | 0.00 | 0.00 | 0.00 | 87 | 1011.7 |
| 20260505061629 | 11 | 210 | 0.0 | 1.6 | 0.00 | 0.00 | 0.00 | 87 | 1011.4 |
| 20260505060054 | 11 | 211 | 0.0 | 0.0 | 0.00 | 0.00 | 0.00 | 86 | 1011.4 |
| 20260505054518 | 11 | 211 | 1.6 | 3.2 | 0.00 | 0.00 | 0.00 | 85 | 1011.5 |
| 20260505053105 | 11 | 335 | 0.0 | 6.4 | 0.00 | 0.00 | 0.00 | 85 | 1011.7 |
| 20260505051528 | 11 | 13 | 3.2 | 8.0 | 0.00 | 0.00 | 0.00 | 86 | 1011.9 |
| 20260505050118 | 11 | 11 | 0.0 | 3.2 | 0.00 | 0.00 | 0.00 | 85 | 1012.1 |
| 20260505041548 | 11 | 109 | 0.0 | 3.2 | 0.00 | 0.00 | 0.00 | 82 | 1011.4 |
| 20260505040012 | 11 | 109 | 0.0 | 3.2 | 0.00 | 0.00 | 0.00 | 81 | 1011.3 |
| 20260505034608 | 11 | 113 | 1.6 | 4.8 | 0.00 | 0.00 | 0.00 | 80 | 1011.2 |
| 20260505033035 | 12 | 222 | 0.0 | 3.2 | 0.00 | 0.00 | 0.00 | 79 | 1010.8 |
| 20260505031624 | 12 | 222 | 1.6 | 4.8 | 0.00 | 0.00 | 0.00 | 78 | 1010.7 |
| 20260505030040 | 13 | 299 | 1.6 | 3.2 | 0.00 | 0.00 | 0.00 | 75 | 1010.7 |
| 20260505024506 | 13 | 299 | 0.0 | 1.6 | 0.00 | 0.00 | 0.00 | 71 | 1010.7 |
| 20260505023059 | 13 | 275 | 4.8 | 9.7 | 0.00 | 0.00 | 0.00 | 69 | 1010.6 |